« Back
NWS Peachtree City, Ga » Text Product » GA Regional Weather Roundup


Printer-friendly Version
Current Version              Previous Versions:   1  2  3  4  5  6  7  8  9  

Regional Weather Roundup

173
ASUS42 KFFC 022103
RWRGA
WEATHER ROUNDUP FOR GEORGIA
NATIONAL WEATHER SERVICE PEACHTREE CITY GA
500 PM EDT THU JUL 02 2015

NOTE: "FAIR" INDICATES FEW OR NO CLOUDS BELOW 12,000 FEET WITH NO
SIGNIFICANT WEATHER AND/OR OBSTRUCTIONS TO VISIBILITY.

* = USE WITH CAUTION. THE STATIONS MARKED WITH AN ASTERISK MAY NOT
REPORT WEATHER SUCH AS PRECIPITATION, FOG, OR THUNDER AND ARE NOT
QUALITY CONTROLLED BY NWS.

THE REMARK "TC" DENOTES TEMPERATURE READING IN DEGREES CELSIUS.

GAZ001>058-022200-
NORTH GEORGIA

CITY           SKY/WX    TMP DP  RH WIND       PRES   REMARKS
ATLANTA        PTSUNNY   84  68  58 W15       29.98S
ATHENS         CLOUDY    69  67  93 VRB5      30.00F
CHAMBLEE       PTSUNNY   79  67  66 N14G21    29.98R
PEACHTREE CITY PTSUNNY   86  71  60 VRB7G18   29.98F HX  91
ROME           CLOUDY    75  69  81 CALM      29.95F
WEST ATLANTA   PTSUNNY   87  66  49 W16G24    29.96F
GAINESVILLE    CLOUDY    69  66  90 NW9       30.00F
CARTERSVILLE   CLOUDY    73  68  84 E3        29.97F


CITY           SKY/WX    TMP DP  RH WIND       PRES   REMARKS
DALTON*        CLOUDY    68  68 100 CALM      29.97S
LAWRENCEVILLE* LGT RAIN  70  63  78 NW9G21    29.99R FOG
MARIETTA       PTSUNNY   77  69  76 N10       29.98S
KENNESAW*      PTSUNNY   73  70  88 VRB5      30.00R
BLAIRSVILLE*     N/A     71  61  69 CALM      30.00F
$$

GAZ059>098-102>109-022200-
CENTRAL GEORGIA

CITY           SKY/WX    TMP DP  RH WIND       PRES   REMARKS
AUGUSTA-BUSH   TSTM      76  67  73 N25G39    29.94R
AUGUSTA-DANIEL TSTM      72  66  81 NW12G29   29.97R VSB 1
COLUMBUS       PTSUNNY   78  72  81 SW8       30.00F
MACON          LGT RAIN  73  69  87 SW8G17    30.00S
ROBINS AFB     TSTM      73  70  88 SW7       30.00R


CITY           SKY/WX    TMP DP  RH WIND       PRES   REMARKS
LAGRANGE*      PTSUNNY   89  78  69 W8        30.00S HX 102
SYLVANIA*      MOSUNNY   93  73  52 SW9       29.95S HX 101
MILLEDGEVILLE* PTSUNNY   90  72  55 W6        29.95R HX  96
$$

GAZ099>101-110>166-022200-
SOUTH GEORGIA

CITY           SKY/WX    TMP DP  RH WIND       PRES   REMARKS
SAVANNAH       PTSUNNY   92  69  47 SW10      29.95F HX  97
VALDOSTA       PTSUNNY   84  70  62 NW9G24    30.08R
ALMA           PTSUNNY   91  71  51 W15G21    29.99F HX  97
ST SIMONS      MOSUNNY   88  74  63 S14G23    29.98F HX  96
FT STEWART     MOSUNNY   91  71  50 SW12G18   29.94F HX  97
ALBANY         LGT RAIN  72  71  97 SW8       30.10F FOG
HUNTER AFB     MOSUNNY   92  73  53 SW8       29.93F HX 100
MOODY AFB      RAIN      73  70  88 W20G28    30.09R VSB 3/4
BRUNSWICK      MOSUNNY   93  70  46 W10G16    29.99S HX  99


CITY           SKY/WX    TMP DP  RH WIND       PRES   REMARKS
BAINBRIDGE*    LGT RAIN  75  73  94 SW5       30.09F
MOULTRIE*      RAIN      72  70  94 W8        30.11F
VIDALIA*       MOSUNNY   90  70  51 SW12      29.96F HX  95
WAYCROSS*      PTSUNNY   92  73  52 W10       29.99F HX 101
DOUGLAS*       PTSUNNY   91  72  52 W22       30.02S THUNDER HX  98
$$



USA.gov is the U.S. government's official web portal to all federal, state and local government web resources and services.